Location: Unspecified
(0.0000°N, 0.0000°E)
Time: 11:51:38
(UTC+00:00)

S-56A Canister/Altair - Pass Details

Date: 28 May 2024
Orbit: 637 x 2489 km, 38.9° (Epoch: 17 June)

Event Time Altitude Azimuth Distance (km) Brightness Sun altitude
Rises 01:25:13 0° 234° (SW) 5,464 - -59.6°
Reaches altitude 10° 01:28:29 10° 235° (SW) 4,651 - -59.1°
Maximum altitude 01:42:14 73° 318° (NW) 2,544 - -56.6°
Exits shadow 01:47:19 50° 25° (NNE) 2,975 10.4 -55.6°
Drops below altitude 10° 01:57:08 10° 41° (NE) 4,983 12.1 -53.7°
Sets 02:00:48 0° 43° (NE) 5,858 12.6 -53.0°
